EHI
0 0 0 0 0 0 0 0 0 0 0 0 0 0 0 0 0 0 0 0 0 0 0 0 0 0 0 0 0 0 0 0 0 0 0 0 0 0 0 0 0 0 0 0
0 0 0 0 0 0 0 0 0 0 0 0 0 0 0 0 0 0 0 0 0 0 0 0 0 0 0 0 0 0 0 0 0 0 0 0 0 0 0 0 0 0 0 0
0 0 0 0 0 0 0 0 0 0 0 0 0 0 0 0 0 0 0 0 0 0 0 0 0 0 0 0 0 0 0 0 0 0 0 0 0 0 0 0 0 0 0 0
0 0 0 0 0 0 0 0 0 0 0 0 0 0 0 0 0 0 0 0 0 0 0 0 0 0 0 0 0 0 0 0 0 0 0 0 0 0 0 0 0 0 0 0
0 0 0 0 0 0 0 0 0 0 0 0 0 0 0 0 0 0 0 0 0 0 0 0 0 0 0 0 0 0 0 0 0 0 0 0 0 0 0 0 0 0 0 0
0 0 0 0 0 0 0 0 0 0 0 0 0 0 0 0 0 0 0 0 0 0 0 0 0 0 0 0 0 0 0 0 0 0 0 0 0 0 0 0 0 0 0 0
0 0 0 0 0 0 0 0 0 0 0 0 0 0 0 0 0 0 0 0 0 0 0 0 0 0 0 0 0 0 0 0 0 0 0 0 0 0 0 0 0 0 0 0
0 0 0 0 0 0 0 0 0 0 0 0 0 0 0 0 0 0 0 0 0 0 0 0 0 0 0 0 0 0 0 0 0 0 0 0 0 0 0 0 0 0 0 0
0 0 0 0 0 0 0 0 0 0 0 0 0 0 0 0 0 0 0 0 0 0 0 0 0 0 0 0 0 0 0 0 0 0 0 0 0 0 0 0 0 0 0 0
0 0 0 0 0 0 0 0 0 0 0 0 0 0 0 0 0 0 0 0 0 0 0 0 0 0 0 0 0 0 0 0 0 0 0 0 0 0 0 0 0 0 0 0
0 0 0 0 0 0 0 0 0 0 0 0 0 0 0 0 0 0 0 0 0 0 0 0 0 0 0 0 0 0 0 0 0 0 0 0 0 0 0 0 0 0 0 0
0 0 0 0 0 0 0 0 0 0 0 0 0 0 0 0 0 0 0 0 0 0 0 0 0 0 0 0 0 0 0 0 0 0 0 0 0 0 0 0 0 0 0 0
0 0 0 0 0 0 0 0 0 0 0 0 0 0 0 0 0 0 0 0 0 0 0 0 0 0 0 0 0 0 0 0 0 0 0 0 0 0 0 0 0 0 0 0
0 0 0 0 0 0 0 0 0 0 0 0 0 0 0 0 0 0 0 0 0 0 0 0 0 0 0 0 0 0 0 0 0 0 0 0 0 0 0 0 0 0 0 0
0 0 0 0 0 0 0 0 0 0 0 0 0 0 0 0 0 0 0 0 0 0 0 0 0 0 0 0 0 0 0 0 0 0 0 0 0 0 0 0 0 0 0 0
0 0 0 0 0 0 0 0 0 0 0 0 0 0 0 0 0 0 0 0 0 0 0 0 0 0 0 0 0 0 0 0 0 0 0 0 0 0 0 0 0 0 0 0
0 0 0 0 0 0 0 0 0 0 0 0 0 0 0 0 0 0 0 0 0 0 0 0 0 0 0 0 0 0 0 0 0 0 0 0 0 0 0 0 0 0 0 0
0 0 0 0 0 0 0 0 0 0 0 0 0 0 0 0 0 0 0 0 0 0 0 0 0 0 0 0 0 0 0 0 0 0 0 0 0 0 0 0 0 0 0 0
0 0 0 0 0 0 0 0 0 0 0 0 0 0 0 0 0 0 0 0 0 0 0 0 0 0 0 0 0 0 0 0 0 0 0 0 0 0 0 0 0 0 0 0
0 0 0 0 0 0 0 0 0 0 0 0 0 0 0 0 0 0 0 0 0 0 0 0 0 0 0 0 0 0 0 0 0 0 0 0 0 0 0 0 0 0 0 0
0 0 0 0 0 0 0 0 0 0 0 0 0 0 0 0 0 0 0 0 0 0 0 0 0 0 0 0 0 0 0 0 0 0 0 0 0 0 0 0 0 0 0 0
0 0 0 0 0 0 0 0 0 0 0 0 0 0 0 0 0 0 0 0 0 0 0 0 0 0 0 0 0 0 0 0 0 0 0 0 0 0 0 0 0 0 0 0
0 0 0 0 0 0 0 0 0 0 0 0 0 0 0 0 0 0 0 0 0 0 0 0 0 0 0 0 0 0 0 0 0 0 0 0 0 0 0 0 0 0 0 0
0 0 0 0 0 0 0 0 0 0 0 0 0 0 0 0 0 0 0 0 0 0 0 0 0 0 0 0 0 0 0 0 0 0 0 0 0 0 0 0 0 0 0 0
0 0 0 0 0 0 0 0 0 0 0 0 0 0 0 0 0 0 0 0 0 0 0 0 0 0 0 0 0 0 0 0 0 0 0 0 0 0 0 0 0 0 0 0
0 0 0 0 0 0 0 0 0 0 0 0 0 0 0 0 0 0 0 0 0 0 0 0 0 0 0 0 0 0 0 0 0 0 0 0 0 0 0 0 0 0 0 0
0 0 0 0 0 0 0 0 0 0 0 0 0 0 0 0 0 0 0 0 0 0 0 0 0 0 0 0 0 0 0 0 0 0 0 0 0 0 0 0 0 0 0 0
Wind_Speed
6 7 4 5 6 4 4 5 6 6 7 9 7 6 6 5 5 6 7 7 7 6 6 6 6 6 5 4 4 2 1 1 2 2 2 2 2 2 2 2 2 2 2 2
5 4 4 5 7 5 6 5 7 7 9 7 6 5 5 5 5 6 7 7 7 7 7 7 6 6 5 5 5 3 2 2 1 1 1 1 1 1 1 1 1 2 2 3
4 5 4 6 5 5 4 5 5 8 9 6 6 7 6 5 5 6 7 7 7 7 6 6 6 6 6 5 4 3 2 2 1 1 1 1 1 1 1 1 2 2 2 3
2 4 5 7 1 3 5 5 5 6 6 5 7 7 5 2 3 6 7 7 7 6 6 6 6 6 6 5 4 3 2 2 1 1 2 1 1 2 2 1 1 2 2 2
1 2 8 6 2 1 3 6 4 6 7 6 6 5 4 3 4 5 6 6 6 6 6 6 5 5 5 5 4 3 2 2 2 2 2 2 2 2 2 2 1 2 2 2
2 3 7 6 2 1 1 5 3 3 4 4 3 2 5 6 6 6 7 6 6 6 6 5 6 5 4 4 4 3 4 3 2 2 2 3 3 2 2 2 2 2 2 2
5 5 10 6 2 1 2 6 2 2 3 2 3 5 5 6 6 5 6 6 6 6 5 5 5 4 4 4 4 5 4 3 2 2 2 3 2 2 1 2 2 1 1 1
5 5 10 2 3 4 6 2 2 2 3 3 4 5 5 6 6 7 7 6 6 6 6 6 5 4 4 5 5 5 4 2 1 1 1 1 2 1 1 2 2 1 1 1
8 9 4 3 5 4 2 3 3 3 3 3 4 5 5 5 6 6 6 6 5 5 6 6 5 3 4 6 5 5 4 3 2 1 0 0 1 2 1 1 1 1 1 1
5 8 6 5 5 4 3 4 4 4 3 3 4 5 5 5 6 6 6 5 5 5 6 6 5 4 4 5 5 4 4 3 2 1 1 1 0 1 2 2 2 2 2 1
6 7 6 6 6 7 5 4 3 3 3 3 4 5 5 5 5 5 6 5 4 4 5 6 6 5 5 5 4 3 3 3 2 1 0 1 1 0 1 2 2 2 2 2
8 7 5 6 4 4 4 5 5 4 4 3 4 5 5 5 5 4 5 5 5 5 5 6 5 5 5 5 4 3 3 2 2 1 1 1 1 2 3 2 2 2 2 1
7 5 5 6 4 3 4 4 4 4 4 4 4 4 4 5 5 4 4 5 5 5 5 5 5 5 5 5 4 2 2 2 1 1 1 1 0 0 1 3 3 3 2 2
5 3 4 4 5 4 3 3 2 3 3 3 3 3 3 4 4 4 5 5 5 5 4 4 5 5 5 4 3 3 2 2 2 1 1 0 0 0 0 0 1 2 2 2
5 5 6 4 3 3 2 1 2 3 3 3 2 3 3 4 4 5 5 5 4 4 4 4 5 5 5 3 3 2 2 1 1 1 1 0 0 0 0 0 0 1 2 2
4 3 3 4 4 3 2 2 3 4 4 4 3 3 4 4 4 5 4 3 3 4 4 4 5 5 4 3 2 2 1 3 2 1 0 0 0 0 0 0 0 0 1 1
3 4 4 4 4 4 4 4 4 5 4 4 4 4 3 3 4 4 4 4 3 4 4 4 4 4 3 2 2 1 1 1 2 1 1 0 0 0 0 0 0 0 1 1
5 5 4 4 4 4 5 4 4 4 4 4 3 3 3 3 4 5 4 4 3 3 4 4 4 3 3 2 1 1 1 1 1 0 0 0 0 0 0 0 0 0 1 1
3 4 4 4 4 4 4 4 4 4 4 3 2 3 3 4 4 4 3 2 3 4 5 4 5 3 3 3 2 1 0 0 0 0 0 1 1 0 0 0 0 0 0 1
3 3 3 3 3 3 3 3 3 3 3 2 2 3 3 4 3 3 2 2 3 3 4 3 3 2 2 2 2 1 0 0 0 0 0 0 0 0 0 0 0 0 0 0
3 3 3 3 3 3 3 3 2 3 3 2 2 3 4 4 3 2 2 3 4 4 3 4 2 2 2 2 2 1 0 0 0 0 0 0 0 0 1 0 1 1 1 1
3 3 3 3 3 3 2 2 2 3 3 2 3 3 3 3 3 2 3 3 3 4 2 1 2 2 2 2 1 1 1 0 0 0 0 0 0 0 1 1 1 1 1 1
3 3 3 3 3 3 2 2 2 2 3 3 3 3 3 3 2 2 3 3 2 3 2 1 3 4 3 2 1 1 1 1 1 1 1 1 1 1 1 1 1 1 1 1
3 3 3 2 1 1 3 3 3 2 3 3 3 3 3 2 2 2 2 3 4 3 1 2 4 3 3 1 1 1 1 1 1 1 1 1 1 1 1 1 1 1 1 1
2 2 2 1 2 2 3 3 2 2 2 2 3 3 2 2 2 2 2 2 3 2 1 3 4 3 2 1 1 1 1 1 1 1 1 1 1 1 1 1 2 2 2 2
2 2 2 2 2 2 2 1 2 2 2 2 2 2 2 1 1 1 1 1 2 2 1 1 2 2 1 1 1 1 1 2 2 2 1 2 2 2 2 2 2 2 2 2
1 1 1 1 2 1 1 1 2 2 2 2 2 2 1 1 1 1 1 1 1 1 1 1 1 1 1 1 1 1 1 1 1 2 2 2 2 2 2 2 2 2 2 2
Wind_Direction
257 269 264 265 282 261 217 223 224 251 261 281 296 300 304 313 325 337 341 343 341 340 338 340 343 341 338 329 320 307 272 230 220 210 197 184 184 184 186 196 198 182 167 167
288 281 276 281 281 253 237 238 246 267 274 281 302 315 317 319 326 331 329 330 332 334 334 335 336 332 329 330 323 307 271 248 224 201 196 190 197 195 182 193 193 176 174 177
281 309 334 282 255 227 225 225 219 242 262 305 314 306 295 299 320 321 321 322 322 319 317 320 325 325 321 317 317 313 295 278 241 208 223 223 203 200 201 209 190 183 185 178
288 0 263 248 228 211 227 249 232 256 282 290 288 294 287 284 310 309 309 311 311 312 314 315 319 323 320 322 319 308 300 285 259 218 218 220 208 210 214 209 202 198 192 190
190 268 276 285 261 183 220 269 244 255 282 300 321 325 298 304 322 305 304 308 310 312 311 314 321 325 328 328 321 309 298 287 258 228 216 211 220 219 211 195 212 215 202 195
170 224 250 256 273 239 135 279 269 253 276 302 350 332 291 320 324 319 320 320 321 323 324 326 324 328 334 327 326 318 300 282 252 224 215 216 222 216 206 197 204 208 212 205
204 233 263 259 271 109 173 258 294 254 259 257 238 244 281 314 319 320 319 319 325 326 324 319 323 331 333 332 323 314 310 294 260 225 217 215 214 213 199 190 174 185 217 230
185 213 254 240 135 187 226 276 273 263 255 253 271 290 302 309 314 321 324 326 328 325 320 321 328 333 328 321 316 321 322 321 305 269 231 200 170 185 187 172 171 184 199 241
200 218 242 192 203 226 228 249 255 252 261 261 277 289 297 303 307 312 315 319 323 320 319 324 331 333 319 315 322 328 329 323 327 337 328 208 171 177 175 174 178 198 200 212
253 260 259 252 252 266 247 241 252 250 259 257 271 286 294 299 305 308 310 312 319 324 326 326 330 328 315 315 322 330 331 327 326 332 338 300 210 179 179 183 190 211 215 213
255 275 299 273 249 253 253 253 260 264 255 252 264 281 284 292 296 300 305 313 319 320 317 317 325 326 323 324 327 330 330 331 332 331 6 30 14 319 235 221 218 216 215 208
232 230 221 258 264 248 241 247 246 250 267 265 254 269 281 285 290 296 303 310 316 317 315 316 323 323 324 326 323 321 323 330 336 344 359 60 58 21 5 354 333 316 309 277
233 240 232 258 272 246 234 246 245 236 245 263 266 261 273 284 291 297 301 305 303 305 308 314 320 321 322 323 322 316 304 312 321 332 335 357 36 69 7 8 14 6 9 2
239 240 260 257 258 259 247 250 249 257 260 259 263 274 278 287 296 297 293 292 296 303 308 312 315 315 317 320 318 317 307 301 308 307 306 324 331 325 308 359 355 357 357 7
243 229 239 260 269 271 264 270 282 280 281 282 274 277 281 284 287 287 290 293 299 304 307 311 311 310 315 316 316 313 310 314 310 309 299 296 321 351 355 343 359 357 3 6
262 249 241 252 263 270 269 255 257 267 269 271 276 276 275 275 280 287 293 295 297 299 302 305 303 305 311 313 315 320 318 319 321 318 303 343 337 348 318 318 14 8 330 336
231 247 247 257 260 264 256 249 250 258 260 263 267 275 282 290 298 300 299 297 287 285 292 294 296 307 315 315 308 304 317 324 323 336 346 355 191 235 250 241 252 281 303 326
234 240 236 235 244 257 266 265 261 261 258 260 267 273 276 277 280 287 293 302 312 315 310 302 303 313 318 319 312 313 326 332 341 339 345 7 49 277 281 270 268 338 344 0
256 251 250 247 243 243 252 259 261 262 265 261 256 260 263 265 271 284 295 310 321 319 313 313 323 333 326 324 335 350 346 337 352 357 12 329 341 8 26 13 10 26 348 352
277 271 263 264 256 245 254 263 264 266 265 256 257 269 278 280 282 287 290 283 279 282 296 318 327 324 319 321 336 3 350 338 24 18 23 22 357 350 341 331 302 294 325 349
281 280 275 273 274 269 259 258 256 265 270 259 250 259 266 276 281 279 284 291 297 301 311 327 333 317 314 327 342 9 357 351 18 24 342 327 333 341 338 336 319 303 301 311
279 277 276 277 279 284 281 267 258 266 271 267 266 269 274 280 284 277 263 266 291 312 324 322 320 325 339 346 10 15 349 344 348 355 333 321 307 311 316 316 301 297 299 298
271 269 270 271 269 278 293 285 266 260 261 263 263 262 263 265 264 266 281 288 296 309 321 307 322 335 346 13 22 6 351 343 326 313 300 291 284 281 284 292 294 293 283 285
265 267 269 274 269 278 287 287 279 273 269 267 263 259 259 269 275 265 267 297 309 314 313 316 326 336 354 34 18 353 338 322 305 296 291 291 286 284 281 281 285 292 291 284
259 260 263 258 258 266 272 283 292 290 283 277 279 274 259 247 254 272 279 291 307 321 325 321 331 341 7 5 332 312 303 294 290 288 276 274 272 271 269 268 271 276 278 277
256 256 253 250 254 266 272 271 277 283 284 289 293 287 280 275 269 279 283 291 302 317 326 326 331 336 343 324 305 297 290 299 309 308 293 286 281 277 273 270 269 268 269 269
267 269 278 291 290 275 270 267 270 279 279 276 283 290 295 305 311 316 317 323 327 326 325 327 326 320 316 310 304 299 291 288 286 286 285 281 278 277 277 274 273 272 272 272